This demonstration page uses our WeatherBlox Daily Observations layout. Learn more.

Left ArrowRight Arrow

34.16533, -84.80231

Hourly Observations for October 10, 2020

Temp ( °F °C ) Dew Point ( °F °C ) Humidity (%) Winds ( mph kmh ) Pressure ( in mb ) Visibility ( mi km ) Precip ( " mm )
12:12 am 00:12 Cloudy 65 18.3 62 16.7 90 90 E 3 6 30.11 1020 9 14 0.00 0.00
12:53 am 00:53 Cloudy 65 18.3 62 16.7 90 90 E 7 11 30.07 1018 8 13 0.01 0.25
1:16 am 01:16 Cloudy 65 18.3 62 16.7 90 90 VRB 3 6 30.09 1019 8 13 0.00 0.00
1:22 am 01:22 Cloudy with Light Rain 65 18.3 62 16.7 90 90 E 7 11 30.08 1019 6 10 0.00 0.00
1:25 am 01:25 Cloudy with Light Rain 65 18.3 62 16.7 90 90 VRB 6 9 30.08 1019 6 10 0.00 0.00
1:53 am 01:53 Cloudy 65 18.3 62 16.7 90 90 VRB 6 9 30.06 1018 7 11 0.00 0.00
2:53 am 02:53 Cloudy with Light Rain 66 18.9 62 16.7 87 87 E 5 7 30.04 1017 6 10 0.03 0.76
3:15 am 03:15 Cloudy with Light Rain 65 18.3 62 16.7 90 90 VRB 5 7 30.05 1017 3 5 0.05 1.27
3:23 am 03:23 Cloudy with Light Rain 65 18.3 63 17.2 93 93 VRB 6 9 30.05 1017 3 5 0.05 1.27
3:42 am 03:42 Cloudy with Light Rain 65 18.3 62 16.7 90 90 E 6 9 30.04 1017 5 8 0.06 1.52
3:53 am 03:53 Cloudy 65 18.3 62 16.7 90 90 VRB 6 9 30.02 1017 10 16 0.06 1.52
4:09 am 04:09 Cloudy 66 18.9 63 17.2 90 90 VRB 5 7 30.04 1017 10 16 0.00 0.00
4:18 am 04:18 Cloudy 66 18.9 62 16.7 87 87 VRB 5 7 30.03 1017 10 16 0.00 0.00
4:53 am 04:53 Cloudy 66 18.9 63 17.2 90 90 E 6 9 29.99 1016 10 16 0.00 0.00
5:44 am 05:44 Cloudy 66 18.9 63 17.2 90 90 VRB 5 7 30.00 1016 10 16 0.00 0.00
5:53 am 05:53 Cloudy 66 18.9 63 17.2 90 90 E 8 13 29.98 1015 10 16 0.00 0.00
6:03 am 06:03 Cloudy 67 19.4 63 17.2 87 87 VRB 7 11 30.00 1016 10 16 0.00 0.00
6:32 am 06:32 Cloudy 67 19.4 64 17.8 91 91 E 5 7 30.00 1016 10 16 0.00 0.00
6:53 am 06:53 Cloudy 67 19.4 64 17.8 91 91 VRB 6 9 29.98 1015 10 16 0.00 0.00
7:15 am 07:15 Cloudy with Light Rain 67 19.4 64 17.8 91 91 E 5 7 30.00 1016 3 4 0.03 0.76
7:29 am 07:29 Cloudy with Light Rain 67 19.4 64 17.8 91 91 E 6 9 29.99 1016 6 10 0.04 1.02
7:53 am 07:53 Cloudy 67 19.4 64 17.8 91 91 VRB 6 9 29.98 1015 10 16 0.04 1.02
8:22 am 08:22 Cloudy 68 20 64 17.8 87 87 E 6 9 29.99 1016 10 16 0.00 0.00
8:45 am 08:45 Cloudy 68 20 65 18.3 90 90 VRB 5 7 29.98 1015 10 16 0.00 0.00
8:53 am 08:53 Cloudy 68 20 65 18.3 90 90 E 5 7 29.98 1015 10 16 0.00 0.00
9:44 am 09:44 Cloudy with Mist and Fog 69 20.6 66 18.9 90 90 VRB 3 6 30.00 1016 6 10 0.00 0.00
9:53 am 09:53 Cloudy 69 20.6 66 18.9 90 90 VRB 3 6 29.98 1015 9 14 0.00 0.00
10:30 am 10:30 Cloudy 69 20.6 66 18.9 90 90 E 6 9 29.98 1015 10 16 0.00 0.00
10:53 am 10:53 Cloudy 70 21.1 67 19.4 90 90 E 5 7 29.97 1015 10 16 0.00 0.00
11:53 am 11:53 Cloudy 72 22.2 68 20 87 87 ENE 5 7 29.96 1015 10 16 0.00 0.00
12:37 pm 12:37 Mostly Cloudy 73 22.8 69 20.6 87 87 VRB 6 9 29.95 1014 10 16 0.00 0.00
12:53 pm 12:53 Mostly Cloudy 73 22.8 69 20.6 87 87 E 6 9 29.94 1014 10 16 0.00 0.00
1:50 pm 13:50 Cloudy 75 24 70 21 83 83 ENE 5 7 29.90 1013 10 16 0.00 0.00
1:53 pm 13:53 Cloudy 75 23.9 69 20.6 82 82 VRB 3 6 29.90 1013 10 16 0.00 0.00
2:03 pm 14:03 Cloudy 74 23.3 69 20.6 85 85 ENE 5 7 29.90 1013 9 14 0.00 0.00
2:16 pm 14:16 Cloudy with Light Rain 74 23.3 70 21.1 88 88 Calm 29.90 1013 3 4 0.03 0.76
2:33 pm 14:33 Cloudy with Light Rain 73 22.8 70 21.1 90 90 Calm 29.90 1012 3 5 0.08 2.03
2:53 pm 14:53 Cloudy with Light Rain 73 22.8 70 21.1 90 90 NE 7 11 29.87 1011 4 6 0.09 2.29
3:06 pm 15:06 Cloudy with Light Rain 74 23.3 71 21.7 91 91 NE 6 9 29.87 1012 7 11 0.00 0.00
3:53 pm 15:53 Cloudy with Light Rain 74 23.3 70 21.1 88 88 ENE 6 9 29.84 1011 7 11 0.00 0.00
4:14 pm 16:14 Cloudy 74 23.3 71 21.7 91 91 VRB 5 7 29.84 1011 8 13 0.00 0.00
4:53 pm 16:53 Mostly Cloudy 74 23.3 70 21.1 88 88 E 7 11 29.81 1010 8 13 0.01 0.25
5:04 pm 17:04 Partly Cloudy 74 23.3 70 21.1 88 88 VRB 6 9 29.81 1010 9 14 0.00 0.00
5:53 pm 17:53 Cloudy with Light Rain 73 22.8 70 21.1 90 90 VRB 7 11 29.78 1008 6 10 0.04 1.02
6:11 pm 18:11 Cloudy with Light Rain 73 22.8 69 20.6 87 87 E 10 17 29.79 1009 5 8 0.02 0.51
6:43 pm 18:43 Cloudy with Heavy Rain 73 22.8 69 20.6 87 87 E 9 15 29.77 1008 3 4 0.14 3.56
6:53 pm 18:53 Cloudy with Rain 73 22.8 69 20.6 87 87 E 8 13 29.75 1008 3 4 0.20 5.08
7:01 pm 19:01 Cloudy with Rain 73 22.8 69 20.6 87 87 E 9 15 29.76 1008 4 6 0.02 0.51
7:26 pm 19:26 Cloudy with Heavy Rain 73 22.8 70 21.1 90 90 ESE 10 17 29.80 1009 2 3 0.24 6.10
7:41 pm 19:41 Cloudy with Light Rain 73 22.8 70 21.1 90 90 SW 7 11 29.82 1010 3 5 0.38 9.65
7:53 pm 19:53 Cloudy with Rain 74 23.3 70 21.1 88 88 SSE 6 9 29.80 1009 5 8 0.42 10.67
8:04 pm 20:04 Cloudy with Light Rain 74 23.3 70 21.1 88 88 ESE 3 6 29.80 1009 10 16 0.00 0.00
8:53 pm 20:53 Cloudy 74 23.3 71 21.7 91 91 E 5 7 29.80 1009 10 16 0.00 0.00
9:53 pm 21:53 Cloudy 73 22.8 70 21.1 90 90 SE 5 7 29.78 1008 10 16 0.00 0.00
10:27 pm 22:27 Cloudy 73 22.8 70 21.1 90 90 E 5 7 29.80 1009 10 16 0.04 1.02
10:34 pm 22:34 Cloudy 73 22.8 70 21.1 90 90 ENE 6 9 29.79 1009 10 16 0.04 1.02
10:53 pm 22:53 Mostly Cloudy 73 22.8 70 21.1 90 90 VRB 3 6 29.77 1008 10 16 0.04 1.02
11:13 pm 23:13 Cloudy 73 22.8 70 21.1 90 90 ENE 5 7 29.79 1009 10 16 0.00 0.00
11:34 pm 23:34 Cloudy 73 22.8 70 21.1 90 90 E 3 6 29.80 1009 10 16 0.00 0.00
11:45 pm 23:45 Cloudy 73 22.8 70 21.1 90 90 Calm 29.80 1009 10 16 0.00 0.00
11:53 pm 23:53 Cloudy 73 22.8 70 21.1 90 90 ENE 3 6 29.78 1009 10 16 0.00 0.00

Powered by AerisWeather